EW6216 Weather Reports


time (UTC)temp
C
wind
direction
speed
KPH
gust
KPH
rain 1hr
cm
rain 24hr
cm
rain mn
cm
humidity
%
barometer
mb
20260506025315 18 289 0.0 4.8 0.00 0.18 0.00 48 1012.9
20260506024329 18 215 0.0 3.2 0.00 0.18 0.00 46 1012.7
20260506023322 19 245 0.0 1.6 0.00 0.18 0.00 42 1012.6
20260506022319 20 240 0.0 1.6 0.00 0.18 0.00 40 1012.5
20260506021314 20 240 0.0 0.0 0.00 0.18 0.00 37 1012.4
20260506020332 20 240 0.0 1.6 0.00 0.18 0.00 38 1012.4
20260506015320 20 288 0.0 4.8 0.00 0.48 0.00 37 1012.3
20260506014315 20 262 0.0 1.6 0.00 0.48 0.00 36 1012.2
20260506013311 21 240 0.0 1.6 0.00 0.48 0.00 35 1012.3
20260506012326 21 266 0.0 1.6 0.00 0.48 0.00 33 1012.4
20260506011321 21 324 0.0 4.8 0.00 0.48 0.00 33 1012.4
20260506010315 22 295 0.0 3.2 0.00 0.48 0.00 33 1012.4
20260506005329 22 340 0.0 4.8 0.00 0.69 0.00 33 1012.4
20260506004341 22 307 0.0 4.8 0.00 0.69 0.00 32 1012.4
20260506003336 22 60 0.0 8.0 0.00 0.69 0.00 32 1012.4
20260506002333 22 243 0.0 9.7 0.00 0.69 0.00 33 1012.3
20260506001348 22 290 0.0 4.8 0.00 0.69 0.00 33 1012.4
20260506000317 22 339 3.2 6.4 0.00 0.69 0.00 32 1012.4
20260505235319 22 322 0.0 8.0 0.00 0.69 0.00 33 1012.4
20260505234333 22 208 1.6 6.4 0.00 0.69 0.00 33 1012.4
20260505233325 22 53 1.6 6.4 0.00 0.69 0.00 32 1012.6
20260505232320 21 288 1.6 4.8 0.00 0.69 0.00 34 1012.6
20260505231315 22 304 3.2 6.4 0.00 0.69 0.00 32 1012.7
20260505230333 22 304 0.0 4.8 0.00 0.69 0.00 35 1012.7
20260505225329 21 113 1.6 4.8 0.00 0.69 0.00 36 1012.8
20260505224321 21 70 1.6 6.4 0.00 0.69 0.00 35 1012.9
20260505223317 21 281 1.6 8.0 0.00 0.69 0.00 37 1013.0
20260505222314 21 251 1.6 8.0 0.00 0.69 0.00 37 1013.1
20260505221350 20 309 3.2 6.4 0.00 0.69 0.00 37 1013.3
20260505220347 20 301 0.0 8.0 0.00 0.69 0.00 40 1013.5
20260505215323 20 295 0.0 3.2 0.00 0.69 0.00 42 1013.5
20260505214318 20 302 0.0 4.8 0.00 0.69 0.00 42 1013.6
20260505213329 19 272 3.2 6.4 0.00 0.69 0.00 40 1013.8
20260505212323 20 198 1.6 6.4 0.00 0.69 0.00 41 1013.9
20260505211317 20 127 1.6 6.4 0.00 0.69 0.00 42 1013.9
20260505210334 19 149 1.6 6.4 0.00 0.69 0.00 44 1014.0
20260505205331 19 64 1.6 8.0 0.00 0.84 0.00 44 1014.1
20260505204346 18 276 0.0 9.7 0.00 0.84 0.00 44 1014.1
20260505203314 18 262 0.0 9.7 0.00 0.84 0.00 48 1014.2
20260505202358 18 291 0.0 8.0 0.00 0.84 0.00 49 1014.2
20260505201331 17 233 0.0 8.0 0.00 0.84 0.00 51 1014.4
20260505200344 17 71 1.6 9.7 0.00 0.84 0.00 52 1014.4
20260505195346 17 309 0.0 6.4 0.00 0.84 0.00 54 1014.5
20260505194320 17 57 1.6 8.0 0.00 0.84 0.00 52 1014.7
20260505193318 17 51 1.6 8.0 0.00 0.84 0.00 54 1014.7
20260505192335 16 120 1.6 8.0 0.00 0.84 0.00 55 1014.7
20260505191329 16 314 1.6 4.8 0.00 0.84 0.00 56 1014.6
20260505190320 16 44 0.0 3.2 0.00 0.84 0.00 59 1014.7
20260505185313 15 224 1.6 6.4 0.00 0.84 0.00 59 1014.7
20260505184326 14 269 0.0 3.2 0.00 0.84 0.00 66 1014.7
20260505183318 13 300 0.0 0.0 0.00 0.84 0.00 63 1014.7
20260505182315 13 303 0.0 0.0 0.00 0.84 0.00 62 1014.7
20260505181314 13 299 0.0 0.0 0.00 0.84 0.00 63 1014.7
20260505180329 13 207 0.0 1.6 0.00 0.84 0.00 64 1014.5
20260505175344 13 155 1.6 4.8 0.00 0.84 0.00 65 1014.6
20260505174338 12 130 0.0 1.6 0.00 0.84 0.00 67 1014.5
20260505173312 12 298 0.0 1.6 0.00 0.84 0.00 67 1014.4
20260505172328 12 172 0.0 1.6 0.00 0.84 0.00 73 1014.3
20260505171324 12 210 0.0 1.6 0.00 0.84 0.00 74 1014.3
20260505170314 11 244 1.6 3.2 0.00 0.84 0.00 75 1014.4
20260505165328 11 81 1.6 3.2 0.00 0.89 0.00 75 1014.3
20260505164324 10 109 0.0 3.2 0.00 0.89 0.00 78 1014.3
20260505163322 10 155 0.0 3.2 0.00 0.89 0.00 80 1014.3
20260505162310 10 170 0.0 0.0 0.00 0.89 0.00 81 1014.2
20260505034337 6 304 1.6 3.2 0.18 0.89 0.89 88 1012.2
20260505033328 6 310 0.0 4.8 0.18 0.89 0.89 89 1012.0
20260505032353 6 240 0.0 1.6 0.15 0.86 0.86 88 1011.6
20260505031321 6 148 0.0 1.6 0.13 0.84 0.84 88 1012.3
20260505030319 6 221 0.0 3.2 0.08 0.79 0.79 87 1012.2